Location: Cosy Dell
(34.2789°N, 117.4537°W)
Time: 11:49:09
(UTC+00:00)

IRS-P3 Rocket - Pass Details

Date: 14 July 2020
Orbit: 794 x 843 km, 98.8° (Epoch: 08 August)

Event Time Altitude Azimuth Distance (km) Brightness Sun altitude
Rises 10:07:59 0° 13° (NNE) 3,310 8.9 -25.9°
Reaches altitude 10° 10:10:18 10° 14° (NNE) 2,381 7.9 -25.6°
Maximum altitude 10:15:34 87° 104° (ESE) 813 4.5 -25.0°
Enters shadow 10:16:19 67° 186° (S) 873 4.5 -24.9°
